KC3SRB Weather Reports


Display with metric or nautical units.
time (UTC)temp
F
wind
direction
speed
MPH
gust
MPH
rain 1hr
in
rain 24hr
in
rain mn
in
humidity
%
barometer
mb
20260509211555 58 0 0.0 3.0 0.00 0.17 0.17 85 1009.4
20260509210053 57 0 1.0 4.0 0.00 0.17 0.17 86 1009.6
20260509204551 57 119 0.0 2.0 0.00 0.17 0.17 86 1009.7
20260509203049 56 0 0.0 0.0 0.00 0.17 0.17 87 1009.9
20260509201558 56 0 0.0 0.0 0.00 0.17 0.17 87 1009.9
20260509194550 57 0 0.0 1.0 0.00 0.17 0.17 86 1010.0
20260509193052 57 0 0.0 3.0 0.00 0.17 0.17 85 1010.3
20260509191601 56 0 0.0 2.0 0.00 0.17 0.17 87 1010.4
20260509190109 55 257 0.0 5.0 0.00 0.17 0.17 86 1010.7
20260509184554 55 287 0.0 3.0 0.00 0.17 0.17 86 1010.9
20260509183057 55 237 0.0 1.0 0.01 0.17 0.17 87 1010.7
20260509181559 54 0 0.0 1.0 0.01 0.17 0.17 87 1010.6
20260509180053 54 147 0.0 2.0 0.01 0.17 0.17 87 1010.7
20260509174557 53 0 0.0 3.0 0.01 0.17 0.17 88 1011.0
20260509173051 53 0 0.0 6.0 0.00 0.16 0.16 87 1011.2
20260509171554 53 246 0.0 4.0 0.02 0.16 0.16 88 1011.3
20260509170052 54 267 0.0 5.0 0.04 0.16 0.16 88 1011.3
20260509164556 53 0 0.0 6.0 0.06 0.16 0.16 88 1011.0
20260509163055 53 0 0.0 2.0 0.08 0.16 0.16 88 1010.4
20260509161559 53 0 0.0 2.0 0.10 0.14 0.14 87 1010.6
20260509160054 53 0 0.0 3.0 0.10 0.12 0.12 87 1011.2
20260509154559 53 227 0.0 3.0 0.09 0.10 0.10 85 1011.6
20260509153053 53 0 0.0 0.0 0.08 0.08 0.08 85 1012.1
20260509151552 54 0 0.0 0.0 0.04 0.04 0.04 84 1012.0
20260509150051 54 0 0.0 0.0 0.02 0.02 0.02 84 1011.7
20260509144550 54 0 0.0 2.0 0.01 0.01 0.01 83 1011.7
20260509143052 54 0 0.0 2.0 0.00 0.00 0.00 81 1011.6
20260509141550 54 131 0.0 2.0 0.00 0.00 0.00 80 1011.4
20260509140100 54 0 0.0 1.0 0.00 0.00 0.00 79 1011.3
20260509134624 54 245 0.0 4.0 0.00 0.00 0.00 81 1011.5
20260509133052 53 182 0.0 2.0 0.00 0.00 0.00 82 1011.3
20260509131553 53 272 0.0 2.0 0.00 0.00 0.00 80 1011.1
20260509130051 53 321 0.0 2.0 0.00 0.00 0.00 81 1010.5
20260509124550 53 0 0.0 1.0 0.00 0.00 0.00 83 1010.9
20260509123052 53 0 0.0 3.0 0.00 0.00 0.00 80 1011.3
20260509121553 53 0 1.0 2.0 0.00 0.00 0.00 79 1011.2
20260509120053 53 0 0.0 1.0 0.00 0.00 0.00 80 1010.9
20260509114553 53 0 0.0 2.0 0.00 0.00 0.00 79 1011.0
20260509113057 52 0 0.0 0.0 0.00 0.00 0.00 78 1010.9
20260509111549 52 0 0.0 3.0 0.00 0.00 0.00 78 1010.8
20260509110050 52 279 0.0 2.0 0.00 0.00 0.00 78 1010.7
20260509104552 52 0 0.0 1.0 0.00 0.00 0.00 77 1010.7
20260509103057 52 0 0.0 0.0 0.00 0.00 0.00 76 1010.5
20260509101554 52 0 0.0 0.0 0.00 0.00 0.00 75 1010.6
20260509100050 51 0 0.0 1.0 0.00 0.00 0.00 75 1010.3
20260509094556 51 0 0.0 0.0 0.00 0.00 0.00 76 1010.2
20260509093058 51 0 0.0 0.0 0.00 0.00 0.00 76 1010.7
20260509091554 51 0 0.0 0.0 0.00 0.00 0.00 75 1010.4
20260509090050 51 0 0.0 0.0 0.00 0.00 0.00 75 1010.4
20260509084551 52 0 0.0 0.0 0.00 0.00 0.00 73 1010.7
20260509083058 52 0 0.0 0.0 0.00 0.00 0.00 72 1010.7
20260509081554 53 0 0.0 0.0 0.00 0.00 0.00 69 1010.7
20260509080051 53 0 0.0 0.0 0.00 0.00 0.00 69 1010.7
20260509074603 54 0 0.0 2.0 0.00 0.00 0.00 67 1010.9
20260509073047 53 0 0.0 3.0 0.00 0.00 0.00 68 1010.9
20260509071605 53 0 0.0 0.0 0.00 0.00 0.00 69 1011.2
20260509070055 53 0 0.0 2.0 0.00 0.00 0.00 69 1011.2
20260509064601 54 19 0.0 2.0 0.00 0.00 0.00 68 1011.2
20260509063053 54 0 0.0 0.0 0.00 0.00 0.00 66 1011.3
20260509061602 55 0 0.0 1.0 0.00 0.00 0.00 66 1011.6
20260509060055 55 0 0.0 2.0 0.00 0.00 0.00 66 1011.4
20260509054555 55 0 0.0 0.0 0.00 0.00 0.00 66 1011.6
20260509053055 55 0 0.0 1.0 0.00 0.00 0.00 66 1011.8
20260509051551 55 19 0.0 2.0 0.00 0.00 0.00 67 1012.0
20260509050050 55 0 0.0 0.0 0.00 0.00 0.00 66 1012.0
20260509044547 55 0 0.0 0.0 0.00 0.00 0.00 67 1012.0
20260509043058 55 0 0.0 0.0 0.00 0.00 0.00 65 1011.8
20260509041548 55 31 0.0 1.0 0.00 0.00 0.00 66 1011.9
20260509040047 55 31 0.0 2.0 0.00 0.00 0.00 67 1012.2
20260509034554 54 0 0.0 0.0 0.00 0.00 0.00 68 1012.5
20260509033056 55 31 0.0 1.0 0.00 0.00 0.00 68 1012.2
20260509031558 55 44 1.0 2.0 0.00 0.00 0.00 68 1012.5
20260509030056 55 9 0.0 2.0 0.00 0.00 0.00 67 1012.4
20260509024556 55 9 0.0 2.0 0.00 0.00 0.00 67 1012.2
20260509023055 55 0 1.0 2.0 0.00 0.00 0.00 66 1011.7
20260509021557 55 9 0.0 2.0 0.00 0.00 0.00 64 1011.9
20260509020058 56 9 1.0 2.0 0.00 0.00 0.00 64 1011.7
20260509014553 56 9 1.0 2.0 0.00 0.00 0.00 65 1012.1
20260509013059 56 9 1.0 2.0 0.00 0.00 0.00 64 1012.0
20260509011553 56 9 1.0 2.0 0.00 0.00 0.00 64 1011.8
20260509010054 56 9 1.0 2.0 0.00 0.00 0.00 63 1011.7
20260509004606 56 9 1.0 2.0 0.00 0.00 0.00 61 1011.6
20260509003054 57 335 1.0 2.0 0.00 0.00 0.00 61 1011.5
20260509001554 57 22 0.0 2.0 0.00 0.00 0.00 61 1011.4
20260509000053 57 0 0.0 3.0 0.00 0.00 0.00 61 1011.4
20260508234552 57 352 1.0 3.0 0.00 0.00 0.00 60 1011.0
20260508233052 58 5 0.0 2.0 0.00 0.00 0.00 58 1010.9
20260508231558 59 340 1.0 9.0 0.00 0.00 0.00 54 1010.9
20260508224559 60 337 0.0 3.0 0.00 0.00 0.00 52 1010.9
20260508223055 60 211 0.0 4.0 0.00 0.00 0.00 52 1010.8
20260508221555 60 5 1.0 3.0 0.00 0.00 0.00 51 1010.8
20260508220100 61 348 0.0 12.0 0.00 0.00 0.00 46 1010.9
20260508214607 62 336 3.0 8.0 0.00 0.00 0.00 44 1010.9
20260508213052 62 0 0.0 4.0 0.00 0.00 0.00 42 1010.5